Regional Weather Roundup
Issued by NWS State College, PA

Home | Current Version | Previous Version | Text Only | Print | Product List | Glossary Off
Versions: 1 2 3 4 5 6 7 8 9 10 11 12 13 14 15 16 17 18 19 20 21 22 23 24 25 26 27 28 29 30 31 32 33 34 35 36 37 38 39 40 41 42 43 44 45 46 47 48 49 50

000
ASUS41 KCTP 081310
RWRCTP

REGIONAL WEATHER ROUNDUP
NATIONAL WEATHER SERVICE STATE COLLEGE PA
800 AM EST THU DEC 08 2016

Note: "fair" indicates few or no clouds below 12,000 feet with no
significant weather and/or obstructions to visibility.

* = STATION THAT DOES NOT REPORT PRECIPITATION /E.G. RAIN...SNOW...ETC/
    THUNDER OR FOG.

PAZ002>004-007>009-013>016-020>023-029>032-081400-
WESTERN PENNSYLVANIA

CITY           SKY/WX    TMP DP  RH WIND       PRES   REMARKS
ERIE           FLURRIES  31  21  66 SW16G24   29.98R
MEADVILLE      CLOUDY    27  19  72 W16G23    29.99R WCI  15
FRANKLIN*        N/A     27  18  69 W9        29.99S
NEW CASTLE     CLOUDY    29  22  75 W9        30.04R
BEAVER COUNTY  CLOUDY    28  23  80 W6        30.02R
BUTLER*        PTCLDY    28  21  74 W6        30.03S
PITTSBURGH INT MOCLDY    32  22  66 W9        30.02S
PITTSBURGH     CLOUDY    31  20  63 SW12      30.01S
INDIANA*       CLOUDY    30  25  80 W9G16     30.02R
LATROBE        MOCLDY    32  23  69 SW13      30.03S
WASHINGTON CO* MOCLDY    30  21  69 SW8       30.04S
$$

PAZ004>006-010>012-017>019-024>028-033>037-041-042-045-046-049>053-081400-
CENTRAL PENNSYLVANIA

CITY           SKY/WX    TMP DP  RH WIND       PRES   REMARKS
BRADFORD       MOCLDY    27  19  72 W8        29.90S
DUBOIS         CLOUDY    27  20  75 SW12      29.94R
CLEARFIELD     PTCLDY    28  21  75 SW6       29.96R
JOHNSTOWN      MOCLDY    28  19  69 W10       29.93F
ALTOONA        PTCLDY    31  18  58 W7        29.99R
STATE COLLEGE  PTCLDY    30  21  69 SW10      29.96S
WILLIAMSPORT   PTCLDY    30  23  75 SW5       29.96F
SELINSGROVE    CLOUDY    31  29  92 SW3       29.99F
FT INDIANTOWN  CLOUDY    31  28  87 CALM      30.00S
CAPITAL CITY   CLOUDY    35  27  72 CALM      30.01F
HARRISBURG     CLOUDY    36  27  69 CALM      30.01S
YORK           CLOUDY    34  28  79 CALM      30.01S
$$

PAZ038>040-043-044-047-048-054-055-060>062-067>071-081400-
EASTERN PENNSYLVANIA

CITY           SKY/WX    TMP DP  RH WIND       PRES   REMARKS
SCRANTON       CLOUDY    34  23  64 S6        29.92F
MOUNT POCONO   CLOUDY    29  20  69 W9        29.88F
ALLENTOWN      MOCLDY    34  26  72 SW7       29.99R
QUAKERTOWN*    CLOUDY    30  28  93 CALM      30.00S
READING        MOCLDY    33  27  78 CALM      30.00R
LANCASTER      CLOUDY    32  30  92 W3        30.01S
COATESVILLE    PTSUNNY   36  21  55 CALM      30.01S
POTTSTOWN      CLOUDY    31  29  92 CALM      30.01S FOG
BLUE BELL      CLOUDY    34  28  80 CALM      30.00S
DOYLESTOWN     CLOUDY    34  30  85 CALM      29.99S
WILLOW GROVE   NOT AVBL
NORTH PHILA    CLOUDY    35  31  85 SW3       30.03S
PHILADELPHIA   CLOUDY    38  30  73 SW5       30.02F
$$




USA.gov is the U.S. government's official web portal to all federal, state and local government web resources and services.